Temp
27 24 25 26 25 24 28 28 29 28 28 30 30 30 28 28 28 23 22 22 22 22 21 21 21 21 21 21 21 21 21 21 21 21 21 21 21 21 21 21 21 21 21 21 21 21 21 21 21
27 25 26 27 27 25 27 29 28 30 31 29 29 28 27 25 25 22 22 22 22 22 22 21 21 21 21 21 21 21 21 21 21 21 21 21 21 21 21 21 21 21 21 21 21 21 21 21 21
26 27 28 27 29 29 29 31 31 32 32 30 30 29 27 24 25 23 24 23 23 22 22 22 22 21 21 21 21 21 21 21 21 21 21 22 22 22 21 21 21 21 21 22 21 21 22 22 22
27 28 27 30 31 32 31 32 32 32 32 31 30 27 27 27 26 25 24 23 23 22 23 22 21 21 21 21 21 21 21 21 21 21 21 22 21 22 21 21 22 21 21 21 21 21 22 23 23
29 30 30 30 33 34 31 33 32 31 31 30 29 27 26 27 26 25 24 23 23 23 23 22 21 21 21 21 21 21 21 21 21 21 22 22 21 21 21 21 21 21 21 21 21 21 22 22 23
25 27 31 30 33 34 32 33 33 32 30 30 28 27 26 27 25 25 24 24 23 23 22 22 22 22 21 21 21 21 21 21 21 21 22 22 21 21 21 21 22 21 21 21 21 21 22 22 23
25 26 32 32 33 35 34 35 32 31 30 29 29 27 26 27 27 26 25 25 24 23 23 22 22 22 21 21 21 21 21 21 21 21 21 22 22 22 22 22 22 21 21 21 21 21 22 22 23
29 31 33 32 33 33 36 36 33 32 31 31 30 27 26 28 29 28 26 25 24 24 24 23 23 22 22 22 22 22 22 22 21 22 22 22 22 22 21 22 22 21 21 21 21 21 22 22 23
29 28 31 33 33 33 35 34 35 34 31 31 31 29 29 30 29 28 27 26 25 25 24 23 23 24 23 23 22 22 23 22 23 23 22 23 22 22 22 22 22 22 22 21 21 21 22 22 23
27 31 34 36 36 34 35 34 34 33 32 31 29 30 30 30 29 28 27 26 25 25 24 24 24 24 23 22 23 24 24 23 23 24 23 23 22 22 22 22 22 22 22 21 21 21 21 22 23
37 34 37 37 36 36 35 35 36 33 31 31 29 29 29 30 29 29 28 28 27 27 25 25 24 24 24 23 25 24 24 24 23 23 23 22 24 23 23 23 22 22 22 22 21 21 22 23 22
36 37 37 37 37 36 36 36 35 34 33 32 30 30 30 29 29 29 29 28 27 27 27 27 26 25 24 25 25 26 24 24 24 24 23 23 23 24 23 23 23 22 22 22 22 23 23 23 23
36 37 38 38 37 37 38 36 35 34 33 32 31 31 30 30 30 31 30 29 29 28 28 27 27 27 26 26 26 25 25 25 25 25 24 24 24 24 23 23 23 23 22 23 22 22 22 23 23
33 37 37 37 35 38 36 35 34 34 33 32 31 31 30 30 31 31 31 28 29 29 28 28 27 27 27 27 26 26 26 26 26 25 25 25 24 24 24 24 24 24 23 24 24 23 23 23 23
29 27 33 37 35 34 36 34 33 33 34 32 32 31 31 31 32 32 30 29 29 29 28 28 27 26 26 26 26 26 26 26 26 26 25 25 25 24 24 24 24 24 24 24 24 24 24 23 23
25 23 25 34 34 31 32 31 33 33 33 31 32 32 32 31 32 34 31 31 31 30 28 27 27 26 26 26 26 26 26 26 26 25 25 25 25 24 25 25 25 25 24 24 24 24 24 23 23
25 25 26 29 35 32 33 31 33 33 32 32 32 32 32 31 31 34 32 32 31 30 29 28 27 27 26 26 26 26 26 26 26 25 25 26 25 24 25 25 25 25 25 25 25 25 25 23 23
28 27 29 29 34 34 29 31 33 33 33 32 31 31 31 31 31 33 33 32 31 30 30 29 28 27 27 26 27 26 27 26 25 28 26 24 25 25 25 26 26 24 26 26 26 25 24 23 22
33 30 29 30 35 31 31 29 34 34 33 32 31 30 30 31 32 34 33 32 31 30 30 30 28 28 27 27 27 27 27 26 26 26 25 24 26 24 25 26 25 26 26 25 26 25 24 22 22
31 29 26 32 34 32 31 31 33 34 33 33 32 31 31 31 31 32 33 31 30 30 30 29 28 27 27 27 28 28 28 26 27 27 27 26 26 26 25 26 25 25 26 25 25 25 24 23 23
31 30 30 34 37 35 31 30 26 32 31 33 34 33 33 32 31 31 31 31 30 30 30 29 29 28 27 28 28 27 27 27 27 27 27 27 26 26 26 26 25 25 25 25 25 26 25 25 24
33 33 32 33 35 33 35 27 26 28 29 29 33 33 33 33 32 32 31 31 30 29 30 30 29 29 28 28 28 28 28 27 28 28 28 27 26 26 27 26 26 25 25 25 26 26 25 25 25
36 35 32 38 36 37 36 28 29 27 27 30 34 34 33 34 34 33 32 33 30 29 29 30 29 28 28 28 27 28 28 28 28 28 28 27 26 26 26 26 26 25 25 25 25 26 26 25 25
39 37 37 37 34 32 33 31 30 28 30 31 31 32 34 34 34 34 34 33 32 30 29 29 29 29 28 28 28 27 28 28 28 27 27 27 26 27 26 26 26 25 25 25 25 26 25 25 25
38 34 30 30 30 30 31 29 28 32 34 34 33 33 31 34 34 34 34 33 32 30 29 28 28 28 28 28 28 27 27 28 28 28 28 27 27 27 26 26 25 26 25 25 25 25 25 25 25
35 34 29 32 30 32 32 28 31 34 34 34 33 33 32 32 34 35 33 34 33 31 30 28 28 27 28 28 28 28 28 27 27 27 28 28 28 27 26 26 26 25 25 25 25 25 25 25 25
33 32 33 33 33 31 31 31 33 33 32 31 30 33 31 34 35 35 33 34 32 32 30 29 28 28 28 28 27 27 27 27 27 27 28 28 28 27 27 26 26 26 25 25 25 24 24 24 25
34 34 32 29 32 32 33 32 30 32 32 32 32 32 32 33 35 36 34 34 33 32 31 30 29 29 29 28 28 27 27 27 27 27 27 28 27 28 27 27 27 26 25 25 25 24 25 24 25
34 32 34 30 30 29 29 30 32 33 34 34 33 35 33 35 36 36 36 35 34 33 31 29 28 28 28 27 27 26 26 26 27 27 27 28 27 27 27 27 26 26 26 25 25 25 25 24 24
35 33 32 28 31 30 30 32 37 35 35 36 33 35 33 30 30 30 35 35 34 32 30 29 28 28 28 28 27 27 27 27 27 26 27 27 28 27 27 26 26 26 26 26 25 25 25 24 24
Height
745 748 752 753 787 800 800 798 781 791 793 779 778 784 790 789 799 830 819 821 823 824 828 830 832 833 836 837 838 839 841 844 843 845 846 847 848 852 851 851 852 853 852 852 852 853 854 856 857
743 751 751 752 790 816 808 786 792 779 772 778 782 786 794 810 798 811 817 821 824 825 828 830 833 835 838 839 840 842 844 846 846 848 849 849 850 853 853 854 854 856 855 854 853 853 854 856 857
746 748 755 768 778 796 797 775 775 773 769 777 783 783 798 811 807 811 814 819 824 827 829 831 835 835 839 840 842 842 845 848 848 849 850 851 852 853 855 856 856 857 858 857 855 855 855 856 857
750 747 750 773 778 766 770 768 767 774 776 775 780 800 800 805 806 809 815 820 823 827 828 832 835 837 839 842 843 844 845 847 848 850 851 853 854 855 856 857 856 858 859 859 858 856 856 857 858
756 745 766 774 771 758 769 761 765 777 782 785 786 805 805 806 807 812 816 820 823 827 830 832 835 837 839 842 844 845 846 846 849 851 852 853 856 856 858 858 858 858 859 859 859 859 858 858 860
766 761 773 788 771 757 760 759 765 774 782 788 795 802 808 807 809 813 817 820 824 826 831 833 835 837 840 842 845 846 848 848 850 853 852 853 855 856 857 858 858 858 859 859 860 860 859 860 860
779 785 773 771 772 762 758 748 767 776 788 794 790 806 808 808 809 812 817 821 825 828 831 833 835 837 840 842 844 847 848 848 851 852 853 853 854 854 855 857 857 858 859 859 860 860 861 861 861
768 767 772 769 776 776 749 747 760 770 785 783 789 810 811 805 809 814 819 822 825 829 831 832 834 836 839 842 844 846 847 849 851 851 850 852 853 853 853 856 858 858 859 860 860 861 861 861 861
771 786 785 774 771 769 751 762 758 761 778 782 784 793 798 802 807 815 821 823 826 828 830 832 833 834 838 842 844 845 846 848 849 848 849 851 851 851 852 855 856 857 858 860 860 861 861 861 862
767 774 767 746 749 762 757 761 762 769 778 788 793 798 801 804 808 813 818 822 825 828 830 832 834 833 837 841 843 844 845 847 847 846 850 850 849 848 849 852 854 856 857 859 859 860 861 862 861
741 765 743 741 742 745 756 760 752 769 786 782 793 797 801 804 809 811 815 818 821 824 828 830 832 833 835 839 841 843 844 847 847 845 848 842 843 845 848 850 852 855 857 859 860 860 860 861 861
756 742 741 740 739 744 753 751 759 762 769 774 784 793 799 803 806 809 812 815 819 824 827 826 830 832 835 838 841 842 843 846 845 846 856 852 847 845 846 848 852 854 857 859 859 859 860 861 861
751 747 743 739 738 740 741 755 761 764 766 773 784 792 798 801 802 803 806 811 816 821 825 826 830 832 834 839 841 841 843 846 845 845 852 851 847 845 847 850 852 855 857 853 855 857 858 858 860
758 743 747 743 750 744 755 759 761 767 766 776 784 792 795 797 798 801 805 811 815 817 821 825 828 831 834 837 840 841 844 845 845 845 846 846 847 849 851 853 853 854 854 854 853 854 855 857 859
772 786 767 751 756 761 751 778 779 768 770 781 786 790 792 793 795 797 803 809 812 816 819 823 827 831 834 837 839 841 842 845 846 847 847 848 850 853 855 853 852 852 852 853 854 855 854 854 856
799 813 824 771 759 767 766 802 775 768 775 785 787 789 790 791 792 795 801 806 810 815 817 822 825 830 833 835 838 840 844 846 848 851 851 848 850 851 855 853 852 852 852 852 853 855 854 854 855
810 835 825 803 758 768 769 793 773 768 776 785 786 787 789 791 791 794 799 803 808 813 818 821 824 827 831 834 838 840 842 846 845 848 847 848 852 852 854 851 850 852 852 852 854 853 853 853 852
805 819 804 808 772 767 795 786 767 767 772 778 782 785 788 790 791 793 798 802 806 811 817 821 824 826 829 833 836 840 841 843 843 840 841 853 848 851 848 846 847 852 850 851 853 852 851 852 850
774 795 808 791 759 779 782 795 768 766 772 778 780 783 786 788 789 793 797 801 806 811 816 820 824 826 829 832 834 835 838 842 843 842 844 849 851 848 849 847 849 849 851 853 853 854 853 855 855
779 797 807 772 754 761 773 785 770 764 765 765 772 777 781 784 788 792 795 800 804 808 813 817 821 824 828 830 831 833 835 838 838 838 842 847 848 844 845 846 848 850 852 851 854 853 856 857 857
775 785 786 767 742 748 773 799 809 767 768 763 758 761 767 776 784 788 791 796 800 804 808 813 818 821 824 827 829 831 833 835 838 838 841 842 844 845 846 846 848 850 851 849 851 852 853 857 858
776 762 775 773 763 790 748 832 810 785 781 775 761 763 765 769 773 780 785 791 794 798 803 809 814 818 822 825 827 827 829 832 832 834 836 839 840 841 842 843 845 847 848 848 850 850 851 855 857
747 747 759 737 755 757 761 809 800 793 794 774 760 755 757 761 764 772 776 782 787 792 798 805 810 815 819 822 825 826 827 830 832 832 831 835 837 840 841 842 843 846 846 846 848 849 851 852 853
714 730 734 737 758 801 769 789 803 798 792 776 757 751 752 753 756 760 767 774 779 787 794 800 805 809 814 819 822 824 826 829 832 833 832 833 836 836 837 839 841 842 843 844 846 847 850 850 850
724 753 806 810 812 813 769 790 789 757 737 733 742 745 748 749 749 754 759 768 774 781 788 795 800 805 809 813 817 821 824 827 831 833 834 834 834 833 835 836 839 841 843 844 845 846 847 848 849
746 756 807 816 820 799 767 806 775 733 731 731 736 734 739 747 744 749 754 760 768 774 782 789 795 801 806 808 812 817 821 826 829 831 832 832 831 833 834 836 838 840 842 844 844 844 845 846 847
752 770 742 773 765 796 785 775 746 737 742 746 746 740 748 742 741 746 749 757 764 771 777 782 789 795 801 806 809 814 819 823 826 829 830 831 831 831 835 835 835 838 840 842 842 842 841 842 842
734 729 777 781 803 814 786 781 783 753 746 746 740 746 740 738 732 737 744 751 758 768 775 780 784 789 796 802 806 813 817 820 825 828 828 830 830 831 831 833 833 835 838 838 838 837 837 838 838
744 757 750 764 779 811 816 791 732 734 726 735 747 726 727 729 727 733 739 745 750 762 770 777 783 788 794 799 806 811 815 818 821 823 827 828 829 830 831 830 832 833 834 835 833 832 833 833 833
719 741 747 793 787 776 781 772 703 709 711 719 719 714 716 727 745 749 738 743 746 756 766 773 779 784 789 796 803 808 811 813 816 820 825 827 827 828 829 829 829 830 829 828 827 826 828 830 830
Wind_Speed
10 12 11 6 5 4 4 5 10 13 10 8 12 5 9 3 5 6 17 17 15 17 18 17 18 19 19 19 18 17 16 15 17 17 18 18 18 13 13 13 13 12 13 13 11 12 11 10 11
7 8 7 1 6 4 3 11 12 8 5 18 14 15 12 7 10 14 16 19 16 20 19 19 17 18 16 17 16 15 14 11 14 14 13 13 14 11 11 10 11 10 9 11 11 10 9 10 10
9 9 1 2 4 10 12 18 18 15 20 18 9 13 6 8 14 20 20 25 19 22 20 19 18 19 15 15 14 15 12 11 10 10 9 9 9 9 7 7 9 8 8 7 9 9 9 10 11
6 2 2 4 12 12 17 17 21 20 19 15 13 11 7 16 11 16 30 22 25 24 21 19 18 17 16 13 13 13 13 11 9 8 7 6 5 5 4 4 5 4 4 5 5 8 9 10 10
10 4 3 7 18 12 21 16 21 21 16 19 22 17 8 20 30 32 30 25 25 21 21 20 18 16 14 12 12 12 12 12 9 7 6 4 2 3 1 1 1 2 2 4 5 6 7 8 9
3 5 4 7 9 16 16 9 22 20 21 19 23 16 7 29 30 29 29 29 23 23 20 18 17 15 14 13 12 12 10 10 8 7 5 4 3 3 3 3 2 2 2 4 6 7 7 9 9
2 4 10 11 9 11 13 16 23 22 23 14 17 16 10 22 29 33 31 30 23 22 19 18 17 16 15 14 13 11 10 9 8 7 6 5 4 4 3 4 4 4 3 5 8 8 8 9 10
7 3 13 10 8 7 8 12 27 25 15 22 20 6 10 18 27 32 32 31 29 19 17 18 18 17 15 14 12 11 11 9 8 6 7 6 6 5 4 4 4 5 5 5 7 8 10 10 10
12 1 8 11 9 11 15 20 20 20 20 23 12 17 14 24 34 30 28 28 27 21 18 18 19 17 14 13 14 11 10 10 8 8 7 5 5 4 5 6 5 6 6 6 7 9 10 11 10
6 5 10 7 14 14 13 12 15 15 19 18 22 19 20 22 27 26 23 24 24 24 23 20 19 19 17 14 13 11 10 10 10 9 5 4 5 11 7 10 7 6 8 7 8 9 10 11 10
4 5 11 16 17 13 16 15 14 12 18 24 26 24 20 21 20 22 22 23 24 23 22 22 21 20 20 16 12 11 11 11 8 9 10 9 8 4 10 5 8 6 7 8 9 10 11 12 10
7 9 9 11 16 13 12 15 9 13 14 26 25 22 21 16 17 23 23 24 26 21 22 21 22 24 20 19 14 8 13 14 15 8 9 9 8 3 7 5 5 7 6 8 10 10 10 10 8
2 11 6 9 7 9 16 9 13 16 25 24 23 21 16 14 19 25 30 29 25 21 22 25 24 18 19 16 8 14 15 13 13 9 10 13 8 5 6 3 4 3 8 7 14 14 14 12 14
19 13 10 8 4 8 15 11 10 16 21 24 22 19 17 16 21 23 24 28 27 25 26 24 21 18 15 12 8 10 15 11 11 6 5 3 4 5 8 6 6 13 12 11 15 16 16 14 12
26 14 13 8 7 3 9 10 11 12 18 20 18 16 14 11 19 17 32 30 31 27 29 23 17 21 12 14 11 9 10 10 8 10 6 4 3 4 5 5 6 10 14 15 14 14 11 14 12
24 13 7 11 10 6 9 4 14 14 16 14 14 13 12 10 15 23 31 33 26 23 29 26 20 17 14 15 16 9 7 7 7 8 6 5 4 4 4 3 3 7 10 14 10 9 6 6 7
6 6 14 17 7 8 4 8 13 15 15 14 13 11 10 8 10 22 29 30 28 25 28 27 26 21 17 15 11 8 8 9 10 8 9 4 4 1 2 2 3 1 5 14 11 12 4 11 6
8 5 5 5 7 9 15 6 17 16 17 15 12 9 9 8 8 21 22 29 27 31 26 20 26 23 20 18 12 9 9 13 22 2 13 7 8 9 3 3 2 3 11 14 8 8 10 6 8
14 12 5 12 17 8 23 4 16 16 15 13 11 10 9 9 13 21 21 26 31 30 25 19 24 26 24 18 13 11 10 10 16 11 11 11 8 10 7 6 5 1 6 9 12 11 15 15 17
20 19 14 12 6 7 11 13 10 15 17 18 14 13 11 9 11 17 24 24 35 33 27 18 22 26 23 15 15 12 6 10 13 8 8 8 7 8 9 6 2 3 6 5 6 10 13 17 14
14 17 15 10 9 3 11 2 9 2 3 12 16 19 16 14 15 14 18 27 33 34 31 26 25 29 24 17 18 13 8 9 12 15 12 10 8 7 2 5 4 4 3 5 5 11 11 11 16
9 17 19 26 6 5 10 3 6 5 7 5 14 17 17 17 15 16 19 26 32 36 35 33 27 27 23 22 16 19 15 10 11 11 12 12 10 8 6 7 4 5 3 8 6 9 8 6 10
9 28 30 15 3 2 3 6 5 4 7 13 14 17 17 20 19 21 22 27 34 36 38 36 32 27 24 25 18 17 12 12 10 5 12 17 12 8 6 7 5 7 5 7 6 10 8 6 5
6 7 7 3 3 1 10 9 3 8 2 11 8 9 14 20 20 19 32 32 31 36 35 39 38 33 28 24 23 17 18 14 8 9 18 17 14 9 11 9 8 8 8 7 7 8 6 7 5
4 5 4 5 4 6 9 7 9 19 25 25 20 13 10 17 18 17 17 27 25 36 35 36 39 36 33 28 25 23 19 17 11 4 13 15 18 14 14 11 9 9 9 7 6 7 6 5 6
7 6 5 6 5 4 4 5 5 16 9 15 12 7 8 11 16 18 13 28 27 36 35 35 38 35 36 31 29 25 24 16 12 9 9 3 13 17 12 15 10 8 10 11 8 7 5 7 7
10 5 11 3 5 5 4 3 5 8 5 6 8 8 9 10 16 16 12 29 26 32 34 37 38 37 36 34 28 25 21 21 15 12 12 11 6 14 15 19 12 12 16 11 11 9 11 10 11
9 8 4 4 3 5 1 6 6 9 7 12 16 19 17 15 17 17 13 29 29 32 32 38 40 39 35 32 31 24 21 19 19 14 15 16 16 16 11 11 12 15 18 14 12 12 11 14 14
1 7 2 3 5 6 2 5 7 16 16 19 18 30 30 25 15 15 16 30 33 34 34 36 35 33 31 28 24 22 19 17 19 20 11 18 11 14 14 13 16 18 17 17 15 16 17 18 19
8 10 8 5 10 4 5 5 7 19 16 17 19 10 13 12 19 11 9 28 32 33 32 35 34 33 29 26 21 23 21 21 19 18 18 15 17 16 13 14 16 16 18 18 19 21 20 20 17
Wind_Direction
197 180 160 173 72 28 80 100 123 129 156 157 128 142 124 30 114 127 139 126 125 123 125 122 117 121 121 125 127 118 107 102 103 99 100 100 100 95 92 91 89 90 98 101 101 101 101 104 109
210 191 225 68 111 135 181 149 137 149 141 129 101 84 62 69 68 122 132 139 136 129 131 127 127 130 128 123 126 122 119 119 110 106 105 102 101 102 101 99 95 89 93 101 106 99 104 107 116
218 244 261 162 111 113 120 112 98 112 113 133 116 97 84 113 119 148 143 142 145 138 136 135 138 135 135 136 136 132 131 126 119 116 115 110 108 107 112 112 103 99 97 106 110 109 111 112 121
199 265 285 137 116 116 121 127 114 113 103 101 104 73 83 126 125 144 140 136 144 150 141 139 139 138 138 143 147 144 144 140 139 141 136 121 117 111 129 131 114 104 114 128 133 127 121 125 127
257 255 254 83 90 114 84 127 125 121 103 93 107 116 95 114 131 139 144 140 143 143 143 142 140 143 147 152 151 150 153 153 156 169 154 140 125 104 118 166 110 110 157 167 162 146 135 143 142
2 319 98 100 88 100 124 144 126 120 112 107 112 116 124 139 140 147 149 149 151 144 145 146 145 144 152 153 153 154 159 158 166 184 166 170 175 185 195 211 185 125 148 156 164 166 158 148 150
126 328 104 91 90 94 133 144 126 121 123 122 127 121 144 150 159 159 150 146 137 140 150 154 153 157 162 161 161 164 167 161 178 191 198 204 198 203 188 185 166 141 144 148 163 170 170 161 151
304 260 97 97 95 77 96 106 126 127 133 129 130 151 151 158 157 143 145 141 143 147 156 159 163 163 162 162 161 172 171 166 181 190 194 202 199 199 198 175 152 161 153 151 152 165 170 168 163
269 109 112 126 126 98 84 98 111 125 131 147 174 142 152 131 150 142 135 134 146 153 160 169 169 163 165 171 173 172 169 177 176 183 196 188 199 206 204 200 173 191 177 174 161 164 172 173 169
207 95 124 123 115 111 110 117 134 145 152 126 127 135 149 144 132 134 137 143 159 163 170 176 178 167 168 183 178 165 166 177 177 168 157 176 251 219 218 227 237 207 193 185 181 179 182 180 179
66 95 92 111 115 131 148 157 155 140 139 147 140 147 164 152 149 158 156 164 172 183 177 187 181 177 164 181 174 167 175 181 186 201 188 199 178 188 215 255 237 215 192 207 201 193 192 187 179
106 87 97 94 132 152 156 147 160 153 138 136 140 151 166 166 174 170 171 168 176 180 181 202 193 204 181 187 180 204 198 200 209 206 180 225 213 249 204 226 250 231 203 220 219 209 191 187 207
27 114 88 115 105 136 111 107 98 122 128 134 141 153 167 176 179 180 170 163 162 169 162 154 166 160 160 178 172 217 201 194 202 223 190 184 191 181 181 203 237 191 180 211 205 219 225 227 216
2 125 151 151 162 79 111 113 106 120 131 138 147 163 175 186 188 187 167 154 165 174 176 174 176 174 166 180 178 192 200 203 204 221 199 177 191 187 188 189 214 198 201 213 188 197 213 220 217
33 30 316 139 86 22 104 111 121 123 131 141 151 168 179 193 192 169 150 163 174 181 173 171 170 183 183 189 189 180 193 193 205 198 180 222 251 212 201 187 232 233 218 210 186 182 192 193 203
63 352 343 337 108 316 79 136 134 134 137 146 160 178 181 191 184 167 156 162 163 171 163 169 167 168 178 189 187 204 228 194 186 204 214 212 240 255 201 202 243 189 195 212 197 193 181 219 239
131 200 236 278 213 158 165 155 149 147 148 160 170 181 182 194 165 166 160 162 167 168 166 170 169 169 173 182 188 212 229 193 177 179 239 235 254 100 190 213 207 238 244 210 192 193 152 148 189
166 172 265 303 231 128 14 193 155 163 162 168 172 170 174 171 163 162 160 164 165 160 167 168 173 171 173 182 190 187 198 186 184 197 230 141 213 167 196 187 52 132 95 145 133 128 104 114 134
79 94 351 251 245 118 161 222 162 168 165 169 169 162 165 171 154 162 170 161 159 159 165 170 177 175 176 179 194 217 200 159 182 179 205 201 169 157 166 146 125 207 139 117 118 117 107 118 123
118 120 185 256 210 107 129 234 226 175 178 171 173 167 168 178 152 165 181 153 155 166 172 170 164 171 174 169 189 205 229 179 190 176 181 182 150 145 187 159 161 226 177 123 144 136 126 140 148
152 166 213 216 192 142 130 85 297 232 20 187 177 172 170 175 161 169 179 162 163 168 173 178 175 175 176 186 205 182 147 176 192 191 189 169 161 147 132 134 160 169 246 175 168 155 161 166 167
203 165 264 236 154 194 147 207 241 247 260 223 203 174 174 174 163 175 179 173 169 175 179 183 185 192 196 195 209 213 219 189 227 242 204 168 190 178 193 153 188 172 151 174 179 168 138 175 198
256 164 205 217 357 77 208 86 285 38 290 265 202 181 177 178 179 176 185 180 178 177 181 186 188 194 200 203 212 214 216 215 231 182 200 188 181 193 199 204 200 178 184 190 153 165 174 156 142
300 339 335 316 166 262 258 123 218 166 113 274 244 174 189 177 182 183 184 188 176 178 179 185 187 193 201 205 210 209 207 217 233 179 163 177 181 198 195 220 223 208 183 204 212 207 206 186 174
341 340 336 334 348 227 118 97 210 200 199 199 222 205 183 188 180 188 180 181 174 174 179 182 187 191 196 202 209 211 209 223 216 194 172 177 202 226 186 206 223 207 201 210 209 215 212 205 212
269 202 167 238 243 260 107 142 265 220 208 225 244 196 194 191 183 182 183 174 174 174 176 178 186 190 197 201 208 214 216 214 220 209 200 238 237 217 190 206 210 218 214 209 219 223 232 234 245
263 281 235 250 304 25 153 225 359 214 218 252 299 258 249 209 178 176 172 169 172 172 172 176 183 192 199 202 206 210 216 216 217 220 227 227 207 185 193 207 203 220 221 214 216 227 226 242 238
174 238 356 343 255 284 324 173 200 220 187 178 226 237 230 244 170 178 167 169 167 172 173 179 185 192 201 204 208 206 215 220 219 225 238 231 209 204 193 188 198 215 213 220 221 228 228 231 236
189 270 271 175 158 194 174 251 200 191 201 180 223 227 221 218 175 171 173 166 161 165 167 173 180 187 195 201 200 200 206 217 222 224 228 214 214 204 204 201 202 212 222 230 230 231 230 237 234
193 208 196 129 278 246 168 250 179 192 210 164 210 160 145 89 45 346 189 161 159 159 160 169 175 184 192 192 191 196 199 212 213 229 232 229 237 243 227 213 219 225 230 236 239 237 235 238 240